EW6167 Weather Reports


time (UTC)temp
C
wind
direction
speed
KPH
gust
KPH
rain 1hr
cm
rain 24hr
cm
rain mn
cm
humidity
%
barometer
mb
20260903174548 17 125 33.8 0.0 0.00 0.00 0.00 39 1004.1
20260903174053 16 179 33.8 0.0 0.00 0.00 0.00 41 1004.0
20260903173558 16 178 30.6 0.0 0.00 0.00 0.00 41 1004.1
20260903173107 16 161 30.6 0.0 0.00 0.00 0.00 41 1004.2
20260903172520 16 173 29.0 0.0 0.00 0.00 0.00 42 1004.0
20260903172030 15 150 30.6 0.0 0.00 0.00 0.00 42 1004.0
20260903171538 15 166 32.2 0.0 0.00 0.00 0.00 42 1003.9
20260903171039 15 185 32.2 0.0 0.00 0.00 0.00 42 1003.9
20260903170539 15 200 30.6 0.0 0.00 0.00 0.00 42 1003.9
20260903170049 16 157 29.0 0.0 0.00 0.00 0.00 40 1003.9
20260903165551 16 207 29.0 0.0 0.00 0.00 0.00 41 1003.9
20260903165102 16 192 29.0 0.0 0.00 0.00 0.00 41 1003.9
20260903164540 15 178 29.0 0.0 0.00 0.00 0.00 43 1003.8
20260903164040 15 163 27.4 0.0 0.00 0.00 0.00 43 1003.9
20260903163550 15 190 27.4 0.0 0.00 0.00 0.00 41 1004.0
20260903163102 15 205 25.7 0.0 0.00 0.00 0.00 41 1004.2
20260903162500 15 188 25.7 0.0 0.00 0.00 0.00 42 1004.2
20260903162100 15 171 27.4 0.0 0.00 0.00 0.00 43 1004.1
20260903161606 14 156 27.4 0.0 0.00 0.00 0.00 43 1004.1
20260903161003 14 184 27.4 0.0 0.00 0.00 0.00 43 1004.1
20260903160502 14 140 27.4 0.0 0.00 0.00 0.00 43 1004.1
20260903160015 14 127 27.4 0.0 0.00 0.00 0.00 43 1004.2
20260903155606 13 175 29.0 0.0 0.00 0.00 0.00 43 1004.2
20260903155015 13 192 25.7 0.0 0.00 0.00 0.00 42 1004.3
20260903154046 13 165 25.7 0.0 0.00 0.00 0.00 42 1004.1
20260903153536 13 172 27.4 0.0 0.00 0.00 0.00 42 1004.1
20260903153045 13 183 29.0 0.0 0.00 0.00 0.00 43 1004.1
20260903152553 13 184 27.4 0.0 0.00 0.00 0.00 42 1004.2
20260903152003 13 180 29.0 0.0 0.00 0.00 0.00 42 1004.2
20260903151613 13 165 29.0 0.0 0.00 0.00 0.00 42 1004.2
20260903151004 13 175 27.4 0.0 0.00 0.00 0.00 42 1004.2
20260903150601 13 182 27.4 0.0 0.00 0.00 0.00 42 1004.1
20260903150108 13 177 25.7 0.0 0.00 0.00 0.00 41 1004.2
20260903145607 13 191 24.1 0.0 0.00 0.00 0.00 42 1004.1
20260903145104 13 169 24.1 0.0 0.00 0.00 0.00 42 1004.1
20260903144502 13 131 24.1 0.0 0.00 0.00 0.00 42 1004.1
20260903144010 13 163 25.7 0.0 0.00 0.00 0.00 41 1004.0
20260903143528 13 177 27.4 0.0 0.00 0.00 0.00 41 1004.1
20260903143042 13 172 29.0 0.0 0.00 0.00 0.00 41 1004.1
20260903142545 13 164 30.6 0.0 0.00 0.00 0.00 40 1004.1
20260903142012 13 130 27.4 0.0 0.00 0.00 0.00 40 1004.0
20260903141526 13 126 27.4 0.0 0.00 0.00 0.00 40 1004.0
20260903141036 13 180 27.4 0.0 0.00 0.00 0.00 40 1003.8
20260903140550 13 171 27.4 0.0 0.00 0.00 0.00 40 1003.8
20260903140057 13 182 24.1 0.0 0.00 0.00 0.00 40 1003.9
20260903135513 12 155 24.1 0.0 0.00 0.00 0.00 40 1003.9
20260903135026 12 171 22.5 0.0 0.00 0.00 0.00 40 1003.8
20260903134548 12 171 22.5 0.0 0.00 0.00 0.00 40 1003.8
20260903134055 12 171 24.1 0.0 0.00 0.00 0.00 40 1003.8
20260903133502 12 196 22.5 0.0 0.00 0.00 0.00 40 1003.8
20260903133020 12 170 19.3 0.0 0.00 0.00 0.00 40 1003.8
20260903132526 12 182 20.9 0.0 0.00 0.00 0.00 40 1003.7
20260903132043 12 154 24.1 0.0 0.00 0.00 0.00 40 1003.8
20260903131503 12 174 20.9 0.0 0.00 0.00 0.00 40 1003.8
20260903131024 12 209 19.3 0.0 0.00 0.00 0.00 41 1003.7
20260903130537 11 146 17.7 0.0 0.00 0.00 0.00 42 1003.6
20260903130051 11 178 14.5 0.0 0.00 0.00 0.00 43 1003.7
20260903125556 10 166 12.9 0.0 0.00 0.00 0.00 44 1003.8
20260903125014 10 178 11.3 0.0 0.00 0.00 0.00 45 1003.7
20260903124533 10 176 9.7 0.0 0.00 0.00 0.00 45 1003.7
20260903124051 11 166 11.3 0.0 0.00 0.00 0.00 44 1003.6
20260903123501 11 158 11.3 0.0 0.00 0.00 0.00 43 1003.6
20260903123022 11 159 12.9 0.0 0.00 0.00 0.00 43 1003.7
20260903122537 11 162 12.9 0.0 0.00 0.00 0.00 42 1003.8
20260903122046 12 152 12.9 0.0 0.00 0.00 0.00 42 1003.8
20260903121604 12 129 12.9 0.0 0.00 0.00 0.00 40 1003.8
20260903121025 12 173 14.5 0.0 0.00 0.00 0.00 40 1003.8
20260903120549 12 204 17.7 0.0 0.00 0.00 0.00 39 1003.8
20260903120055 12 192 20.9 0.0 0.00 0.00 0.00 39 1003.9
20260903115511 12 217 17.7 0.0 0.00 0.00 0.00 40 1003.9
20260903115020 12 182 12.9 0.0 0.00 0.00 0.00 41 1003.8
20260903114531 12 180 12.9 0.0 0.00 0.00 0.00 43 1003.9
20260903114040 12 183 12.9 0.0 0.00 0.00 0.00 43 1003.9
20260903113551 12 215 14.5 0.0 0.00 0.00 0.00 43 1003.9
20260903113051 12 194 17.7 0.0 0.00 0.00 0.00 44 1003.9
20260903112514 12 200 22.5 0.0 0.00 0.00 0.00 44 1003.8
20260903112025 12 211 29.0 0.0 0.00 0.00 0.00 43 1004.1
20260903111534 12 157 32.2 0.0 0.00 0.00 0.00 43 1003.8
20260903111049 12 180 35.4 0.0 0.00 0.00 0.00 41 1003.5
20260903110553 12 173 33.8 0.0 0.00 0.00 0.00 40 1003.6
20260903110049 13 167 30.6 0.0 0.00 0.00 0.00 39 1003.4
20260903105507 13 128 25.7 0.0 0.00 0.00 0.00 36 1003.3
20260903105024 13 176 27.4 0.0 0.00 0.00 0.00 36 1003.3
20260903104533 13 134 29.0 0.0 0.00 0.00 0.00 36 1003.1
20260903104040 13 140 29.0 0.0 0.00 0.00 0.00 36 1002.9
20260903103552 13 181 27.4 0.0 0.00 0.00 0.00 35 1002.8
20260903103101 13 173 25.7 0.0 0.00 0.00 0.00 34 1002.7
20260903102509 14 150 25.7 0.0 0.00 0.00 0.00 33 1002.6
20260903102031 14 178 25.7 0.0 0.00 0.00 0.00 32 1002.6
20260903101551 14 161 25.7 0.0 0.00 0.00 0.00 32 1002.5
20260903101102 14 145 27.4 0.0 0.00 0.00 0.00 32 1002.5
20260903100511 14 177 27.4 0.0 0.00 0.00 0.00 32 1002.3
20260903100028 14 171 27.4 0.0 0.00 0.00 0.00 32 1002.1
20260903095539 14 178 27.4 0.0 0.00 0.00 0.00 32 1002.1
20260903095048 14 150 27.4 0.0 0.00 0.00 0.00 31 1002.1
20260903094505 14 135 30.6 0.0 0.00 0.00 0.00 31 1002.1
20260903094027 15 168 29.0 0.0 0.00 0.00 0.00 31 1002.1
20260903093542 14 171 25.7 0.0 0.00 0.00 0.00 31 1002.2
20260903093102 14 173 25.7 0.0 0.00 0.00 0.00 31 1002.2
20260903092517 14 126 27.4 0.0 0.00 0.00 0.00 31 1002.2
20260903092028 14 126 25.7 0.0 0.00 0.00 0.00 30 1002.2
20260903091541 14 149 25.7 0.0 0.00 0.00 0.00 30 1002.0
20260903091054 14 173 27.4 0.0 0.00 0.00 0.00 29 1002.1
20260903090508 14 175 22.5 0.0 0.00 0.00 0.00 30 1002.3
20260903090015 14 146 22.5 0.0 0.00 0.00 0.00 29 1002.5
20260903085528 14 169 24.1 0.0 0.00 0.00 0.00 29 1002.6
20260903085047 14 179 22.5 0.0 0.00 0.00 0.00 29 1002.7
20260903084557 14 148 20.9 0.0 0.00 0.00 0.00 29 1002.7
20260903084006 14 165 22.5 0.0 0.00 0.00 0.00 28 1002.7
20260903083528 14 130 24.1 0.0 0.00 0.00 0.00 28 1002.7
20260903083047 14 167 24.1 0.0 0.00 0.00 0.00 28 1002.7
20260903082558 14 169 24.1 0.0 0.00 0.00 0.00 28 1002.8
20260903082002 14 176 24.1 0.0 0.00 0.00 0.00 28 1002.9
20260903081534 14 163 24.1 0.0 0.00 0.00 0.00 28 1002.8
20260903081040 14 133 24.1 0.0 0.00 0.00 0.00 28 1002.9
20260903080556 14 161 25.7 0.0 0.00 0.00 0.00 27 1002.7
20260903080009 14 152 27.4 0.0 0.00 0.00 0.00 27 1002.9
20260903075535 14 169 27.4 0.0 0.00 0.00 0.00 27 1002.7
20260903075040 14 172 25.7 0.0 0.00 0.00 0.00 28 1002.7
20260903074552 14 148 22.5 0.0 0.00 0.00 0.00 28 1002.7
20260903074008 13 170 22.5 0.0 0.00 0.00 0.00 28 1002.7
20260903073533 13 163 22.5 0.0 0.00 0.00 0.00 28 1002.7
20260903073058 13 188 22.5 0.0 0.00 0.00 0.00 28 1002.7
20260903072557 13 161 20.9 0.0 0.00 0.00 0.00 29 1002.7
20260903072009 13 194 20.9 0.0 0.00 0.00 0.00 29 1002.8
20260903071532 13 190 25.7 0.0 0.00 0.00 0.00 29 1002.8
20260903071052 14 167 27.4 0.0 0.00 0.00 0.00 27 1002.8
20260903070557 14 170 25.7 0.0 0.00 0.00 0.00 27 1002.9
20260903070003 13 166 20.9 0.0 0.00 0.00 0.00 28 1002.7
20260903065517 13 165 19.3 0.0 0.00 0.00 0.00 29 1002.7
20260903065028 13 192 20.9 0.0 0.00 0.00 0.00 28 1002.7
20260903064537 13 165 22.5 0.0 0.00 0.00 0.00 28 1002.7
20260903064046 13 180 22.5 0.0 0.00 0.00 0.00 28 1002.7
20260903063553 13 198 22.5 0.0 0.00 0.00 0.00 29 1002.8
20260903063008 13 165 20.9 0.0 0.00 0.00 0.00 29 1002.8
20260903062516 13 182 22.5 0.0 0.00 0.00 0.00 29 1002.8
20260903062025 13 174 22.5 0.0 0.00 0.00 0.00 30 1002.8
20260903061546 13 169 24.1 0.0 0.00 0.00 0.00 30 1002.8
20260903061057 13 152 24.1 0.0 0.00 0.00 0.00 30 1002.8
20260903060517 13 165 22.5 0.0 0.00 0.00 0.00 29 1002.8
20260903060033 13 175 22.5 0.0 0.00 0.00 0.05 29 1002.6
20260903055548 13 119 24.1 0.0 0.00 0.00 0.05 29 1002.6
20260903055055 14 154 25.7 0.0 0.00 0.00 0.05 28 1002.4
20260903054503 14 148 22.5 0.0 0.00 0.00 0.05 28 1002.4
20260903054031 13 148 19.3 0.0 0.00 0.00 0.05 28 1002.5
20260903053553 14 153 17.7 0.0 0.00 0.00 0.05 28 1002.6
20260903053102 14 167 20.9 0.0 0.00 0.00 0.05 27 1002.6
20260903052521 14 152 19.3 0.0 0.00 0.00 0.05 27 1002.6
20260903052040 14 140 17.7 0.0 0.00 0.00 0.05 27 1002.6
20260903051551 14 169 17.7 0.0 0.00 0.00 0.05 27 1002.8
20260903051007 14 176 17.7 0.0 0.00 0.00 0.05 26 1002.8
20260903050529 14 119 16.1 0.0 0.00 0.00 0.05 26 1002.7
20260903050036 14 184 16.1 0.0 0.00 0.00 0.05 26 1002.8
20260903045556 15 180 16.1 0.0 0.00 0.00 0.05 26 1002.8
20260903045014 14 159 14.5 0.0 0.00 0.00 0.05 26 1003.0
20260903044530 14 180 14.5 0.0 0.00 0.00 0.05 26 1003.2
20260903044043 15 145 14.5 0.0 0.00 0.00 0.05 26 1003.2
20260903043558 15 138 16.1 0.0 0.00 0.00 0.05 25 1003.3
20260903043020 15 170 17.7 0.0 0.00 0.00 0.05 25 1003.3
20260903042531 15 149 19.3 0.0 0.00 0.00 0.05 25 1003.4
20260903042054 15 157 20.9 0.0 0.00 0.00 0.05 25 1003.5
20260903041509 15 168 17.7 0.0 0.00 0.00 0.05 25 1003.4
20260903041031 15 172 16.1 0.0 0.00 0.00 0.05 25 1003.4
20260903040548 15 132 17.7 0.0 0.00 0.00 0.05 25 1003.5
20260903040104 15 167 19.3 0.0 0.00 0.00 0.05 25 1003.4
20260903035505 15 141 19.3 0.0 0.00 0.00 0.05 25 1003.2
20260903035024 15 192 19.3 0.0 0.00 0.00 0.05 26 1003.2
20260903034543 15 140 19.3 0.0 0.00 0.00 0.05 25 1003.2
20260903034103 15 178 19.3 0.0 0.00 0.00 0.05 25 1003.0
20260903033506 15 156 19.3 0.0 0.00 0.00 0.05 25 1003.0
20260903033025 15 167 22.5 0.0 0.00 0.00 0.05 24 1003.0
20260903032539 15 162 20.9 0.0 0.00 0.00 0.05 24 1003.1
20260903032057 15 144 19.3 0.0 0.00 0.00 0.05 24 1003.1
20260903031521 16 168 17.7 0.0 0.00 0.00 0.05 24 1003.1
20260903031023 16 175 17.7 0.0 0.00 0.00 0.05 24 1003.2
20260903030535 16 138 19.3 0.0 0.00 0.00 0.05 24 1003.2
20260903030045 16 146 20.9 0.0 0.00 0.00 0.05 23 1003.2
20260903025547 16 164 22.5 0.0 0.00 0.00 0.05 23 1003.2
20260903025053 16 136 24.1 0.0 0.00 0.00 0.05 23 1002.9
20260903024504 16 131 25.7 0.0 0.00 0.00 0.05 23 1002.9
20260903024012 16 160 25.7 0.0 0.00 0.00 0.05 23 1002.8
20260903023537 16 153 25.7 0.0 0.00 0.00 0.05 23 1002.5
20260903023058 16 139 25.7 0.0 0.00 0.00 0.05 23 1002.5
20260903022554 16 178 25.7 0.0 0.00 0.00 0.05 23 1002.6
20260903022005 16 197 27.4 0.0 0.00 0.00 0.05 23 1002.7
20260903021543 17 198 29.0 0.0 0.00 0.00 0.05 23 1002.7
20260903021044 17 178 30.6 0.0 0.00 0.00 0.05 22 1002.5
20260903020556 17 132 29.0 0.0 0.00 0.00 0.05 22 1002.4
20260903020007 17 146 30.6 0.0 0.00 0.00 0.05 22 1002.3
20260903015528 17 180 32.2 0.0 0.00 0.00 0.05 22 1002.5
20260903015046 17 168 32.2 0.0 0.00 0.00 0.05 21 1002.6
20260903014555 17 152 32.2 0.0 0.00 0.00 0.05 21 1002.6
20260903014004 17 186 32.2 0.0 0.00 0.00 0.05 21 1002.6
20260903013515 18 171 32.2 0.0 0.00 0.00 0.05 20 1002.6
20260903013034 18 188 33.8 0.0 0.00 0.00 0.05 20 1002.6
20260903012546 18 170 33.8 0.0 0.00 0.00 0.05 19 1002.3
20260903012055 18 159 32.2 0.0 0.00 0.00 0.05 19 1002.4
20260903011605 18 137 32.2 0.0 0.00 0.00 0.05 20 1002.4
20260903011009 18 190 30.6 0.0 0.00 0.00 0.05 19 1002.4
20260903010536 18 132 29.0 0.0 0.00 0.00 0.05 19 1002.2
20260903010052 19 168 27.4 0.0 0.00 0.00 0.05 19 1002.1
20260903005503 19 166 27.4 0.0 0.00 0.00 0.05 18 1002.1
20260903005021 19 133 29.0 0.0 0.00 0.00 0.05 18 1002.0
20260903004541 19 172 30.6 0.0 0.00 0.00 0.05 18 1002.0
20260903004048 19 178 32.2 0.0 0.00 0.00 0.05 18 1002.1
20260903003557 19 171 30.6 0.0 0.00 0.00 0.05 18 1001.9
20260903003014 19 130 32.2 0.0 0.00 0.00 0.05 18 1002.0
20260903002525 20 196 33.8 0.0 0.00 0.00 0.05 18 1002.1
20260903002029 20 162 32.2 0.0 0.00 0.00 0.05 18 1002.1
20260903001547 20 182 30.6 0.0 0.00 0.00 0.05 18 1001.9
20260903001008 20 167 29.0 0.0 0.00 0.00 0.05 18 1001.7
20260903000531 21 184 29.0 0.0 0.00 0.00 0.05 17 1001.8
20260903000036 20 171 30.6 0.0 0.00 0.00 0.05 18 1001.8
20260902235542 20 163 30.6 0.0 0.00 0.00 0.05 17 1001.8
20260902235056 21 182 32.2 0.0 0.00 0.00 0.05 17 1001.9
20260902234504 21 178 33.8 0.0 0.00 0.00 0.05 16 1001.8
20260902234023 20 201 33.8 0.0 0.00 0.00 0.05 17 1001.8
20260902233543 20 159 33.8 0.0 0.00 0.00 0.05 16 1001.8
20260902233052 21 174 30.6 0.0 0.00 0.00 0.05 16 1001.9
20260902232512 20 182 29.0 0.0 0.00 0.00 0.05 16 1001.8
20260902232038 20 204 30.6 0.0 0.00 0.00 0.05 16 1001.9
20260902231558 20 144 32.2 0.0 0.00 0.00 0.05 16 1001.9
20260902231105 20 188 35.4 0.0 0.00 0.00 0.05 16 1001.8
20260902230504 20 206 37.0 0.0 0.00 0.00 0.05 16 1002.0
20260902230027 20 185 35.4 0.0 0.00 0.00 0.05 15 1001.9
20260902225542 21 186 35.4 0.0 0.00 0.00 0.05 16 1002.1
20260902225053 21 180 35.4 0.0 0.00 0.00 0.05 16 1002.1
20260902224509 22 198 33.8 0.0 0.00 0.00 0.05 15 1002.0
20260902224031 22 193 32.2 0.0 0.00 0.00 0.05 16 1001.9
20260902223553 22 182 29.0 0.0 0.00 0.00 0.05 17 1002.0
20260902223004 22 219 30.6 0.0 0.00 0.00 0.05 18 1001.6
20260902222515 21 202 33.8 0.0 0.00 0.00 0.05 19 1001.7
20260902222033 21 196 33.8 0.0 0.00 0.00 0.05 19 1001.9
20260902221552 21 148 33.8 0.0 0.00 0.00 0.05 19 1001.6
20260902221100 21 116 32.2 0.0 0.00 0.00 0.05 19 1001.8
20260902220515 22 181 33.8 0.0 0.00 0.00 0.05 21 1001.9
20260902220035 22 219 33.8 0.0 0.00 0.00 0.05 20 1001.6
20260902215546 22 203 35.4 0.0 0.00 0.00 0.05 20 1001.6
20260902215056 22 159 38.6 0.0 0.00 0.00 0.05 19 1001.6
20260902214501 22 177 37.0 0.0 0.00 0.00 0.05 20 1001.5
20260902214013 22 215 32.2 0.0 0.00 0.00 0.05 20 1001.4
20260902213530 22 203 33.8 0.0 0.00 0.00 0.05 22 1001.3
20260902213050 22 186 35.4 0.0 0.00 0.00 0.05 22 1001.2
20260902212552 22 135 35.4 0.0 0.00 0.00 0.05 23 1001.3
20260902212016 21 155 37.0 0.0 0.00 0.00 0.05 24 1001.3
20260902211535 22 168 37.0 0.0 0.00 0.00 0.05 23 1001.4
20260902211052 22 195 38.6 0.0 0.00 0.00 0.05 21 1001.3
20260902210511 22 186 38.6 0.0 0.00 0.00 0.05 21 1001.1
20260902210036 22 194 37.0 0.0 0.00 0.00 0.05 22 1001.2
20260902205543 22 175 33.8 0.0 0.00 0.00 0.05 21 1001.2
20260902205001 22 171 37.0 0.0 0.00 0.00 0.05 21 1001.2
20260902204517 22 222 35.4 0.0 0.00 0.00 0.05 21 1001.2
20260902204033 22 208 33.8 0.0 0.00 0.00 0.05 19 1001.2
20260902203559 22 179 35.4 0.0 0.00 0.00 0.05 20 1001.3
20260902203001 22 187 35.4 0.0 0.00 0.00 0.05 20 1000.9
20260902202522 22 198 38.6 0.0 0.00 0.00 0.05 20 1001.1
20260902202031 22 180 41.8 0.0 0.00 0.00 0.05 19 1000.9
20260902201546 22 205 43.5 0.0 0.00 0.00 0.05 19 1000.8
20260902201006 22 208 41.8 0.0 0.00 0.00 0.05 19 1000.6
20260902200527 22 176 40.2 0.0 0.00 0.00 0.05 19 1000.6
20260902200040 22 150 40.2 0.0 0.00 0.00 0.05 18 1000.8
20260902195555 22 167 40.2 0.0 0.00 0.00 0.05 19 1000.8
20260902195003 22 190 40.2 0.0 0.00 0.00 0.05 19 1000.6
20260902194524 22 188 41.8 0.0 0.00 0.00 0.05 19 1000.8
20260902194035 22 208 43.5 0.0 0.00 0.00 0.05 19 1000.7
20260902193552 22 134 43.5 0.0 0.00 0.00 0.05 19 1000.6
20260902193102 22 173 40.2 0.0 0.00 0.00 0.05 19 1000.9
20260902192513 22 180 40.2 0.0 0.00 0.00 0.05 18 1000.8
20260902192026 22 186 41.8 0.0 0.00 0.00 0.05 19 1000.9
20260902191533 22 204 38.6 0.0 0.00 0.00 0.05 19 1001.0
20260902191044 22 171 38.6 0.0 0.00 0.00 0.05 19 1000.9
20260902190555 22 184 40.2 0.0 0.00 0.00 0.05 19 1000.7
20260902190010 22 167 38.6 0.0 0.00 0.00 0.05 23 1000.8
20260902185527 22 178 37.0 0.0 0.00 0.00 0.05 23 1000.7
20260902185042 22 225 37.0 0.0 0.00 0.00 0.05 26 1000.9
20260902184547 22 150 40.2 0.0 0.00 0.00 0.05 25 1000.8
20260902184100 22 180 41.8 0.0 0.00 0.00 0.05 26 1000.9
20260902183513 22 159 40.2 0.0 0.00 0.00 0.05 27 1000.9
20260902183028 22 168 38.6 0.0 0.00 0.00 0.05 23 1000.9
20260902182543 22 181 40.2 0.0 0.00 0.00 0.05 26 1001.1
20260902182056 22 186 37.0 0.0 0.00 0.00 0.05 27 1001.3
20260902181504 22 182 33.8 0.0 0.00 0.00 0.05 29 1001.4
20260902181020 22 178 33.8 0.0 0.00 0.00 0.05 30 1001.5
20260902180542 22 175 35.4 0.0 0.00 0.00 0.05 29 1001.2
20260902180054 22 175 33.8 0.0 0.00 0.00 0.05 30 1001.3
20260902175509 22 163 30.6 0.0 0.00 0.00 0.05 31 1001.3
20260902175029 22 198 29.0 0.0 0.00 0.00 0.05 32 1001.5